Guymon, OK

7:20 AM CDT on June 23, 2018 (GMT -0500)
Guymon Municipal

Weather History for KGUY - October, 2017

Change the Weather History Date:

Thursday, October 12, 2017

  Actual Average Record
Temperature  
Mean Temperature 70 °F 59 °F  
Max Temperature 90 °F 73 °F 90 °F (1999)
Min Temperature 50 °F 44 °F 36 °F (2003)
Degree Days  
Heating Degree Days 0 7  
Month to date heating degree days 47 69  
Since 1 July heating degree days 79 112  
Cooling Degree Days 5 1  
Month to date cooling degree days 36 21  
Year to date cooling degree days 1581 1475  
Growing Degree Days 20 (Base 50)    
Moisture  
Dew Point 50 °F    
Average Humidity 58    
Maximum Humidity 96    
Minimum Humidity 19    
Precipitation  
Precipitation 0.00 in 0.05 in 1.74 in (2008)
Month to date precipitation 1.34 0.71  
Year to date precipitation 21.69 17.27  
Snow  
Snow 0.00 in - - ()
Month to date snowfall 0.0  
Since 1 July snowfall 0.0  
Since 1 September snowfall 0.0  
Snow Depth 0.00 in    
Sea Level Pressure  
Sea Level Pressure 29.81 in    
Wind  
Wind Speed 14 mph (SSW)    
Max Wind Speed 29 mph    
Max Gust Speed 37 mph    
Visibility 10 miles    
Events      
T = Trace of Precipitation, MM = Missing Value Source: NWS Daily Summary

Daily Weather History Graph

Daily Weather History Graph

Search for Another Location

Airport or City:

Astronomy

Oct. 12, 2017 Rise Set
Actual Time 7:51 AM CDT 7:13 PM CDT
Civil Twilight 7:25 AM CDT 7:39 PM CDT
Nautical Twilight 6:55 AM CDT 8:09 PM CDT
Astronomical Twilight 6:25 AM CDT 8:39 PM CDT
Moon 12:26 AM CDT (10/12) 2:58 PM CDT (10/12)
Length of Visible Light 12h 14m
Length of Day
11h 22m
Waning Gibbous, 48% of the Moon is Illuminated
Oct 12
Waning Gibbous
Oct 19
New
Oct 27
First Quarter
Nov 4
Full
Nov 10
Last Quarter

Hourly Weather History & Observations

Time (CDT) Temp. Dew Point Humidity Pressure Visibility Wind Dir Wind Speed Gust Speed Precip Events Conditions
12:53 AM 55.9 °F 50.0 °F 80% 29.86 in 10.0 mi South 13.8 mph 21.9 mph N/A   Clear
1:53 AM 55.9 °F 51.1 °F 84% 29.84 in 10.0 mi South 16.1 mph - N/A   Clear
2:53 AM 55.0 °F 52.0 °F 89% 29.84 in 10.0 mi South 12.7 mph - N/A   Clear
3:53 AM 55.0 °F 52.0 °F 89% 29.83 in 10.0 mi South 9.2 mph - N/A   Clear
4:53 AM 52.0 °F 50.0 °F 93% 29.84 in 10.0 mi SW 9.2 mph - N/A   Clear
5:53 AM 51.1 °F 48.9 °F 92% 29.85 in 10.0 mi South 6.9 mph - N/A   Clear
6:53 AM 51.1 °F 48.9 °F 92% 29.87 in 10.0 mi South 8.1 mph - N/A   Clear
7:53 AM 50.0 °F 48.9 °F 96% 29.88 in 10.0 mi South 5.8 mph - N/A   Clear
8:53 AM 55.0 °F 52.0 °F 89% 29.89 in 10.0 mi SSW 11.5 mph - N/A   Clear
9:53 AM 64.0 °F 52.0 °F 65% 29.87 in 10.0 mi SSW 12.7 mph - N/A   Clear
10:53 AM 72.0 °F 51.1 °F 48% 29.84 in 10.0 mi SW 20.7 mph - N/A   Clear
11:53 AM 79.0 °F 51.1 °F 38% 29.82 in 10.0 mi SSW 20.7 mph 27.6 mph N/A   Clear
12:53 PM 82.9 °F 52.0 °F 34% 29.79 in 10.0 mi SSW 17.3 mph 26.5 mph N/A   Clear
1:53 PM 88.0 °F 50.0 °F 27% 29.76 in 10.0 mi SW 21.9 mph 29.9 mph N/A   Clear
2:53 PM 90.0 °F 43.0 °F 19% 29.72 in 10.0 mi SW 20.7 mph 32.2 mph N/A   Clear
3:53 PM 90.0 °F 41.0 °F 18% 29.71 in 10.0 mi SW 23.0 mph 29.9 mph N/A   Clear
4:53 PM 88.0 °F 44.1 °F 22% 29.73 in 10.0 mi SW 21.9 mph 32.2 mph N/A   Clear
5:53 PM 87.1 °F 46.9 °F 25% 29.73 in 10.0 mi SW 20.7 mph 28.8 mph N/A   Clear
6:53 PM 81.0 °F 50.0 °F 34% 29.75 in 10.0 mi SSW 12.7 mph - N/A   Clear
7:53 PM 69.1 °F 52.0 °F 54% 29.80 in 10.0 mi SSW 6.9 mph - N/A   Clear
8:53 PM 72.0 °F 53.1 °F 51% 29.79 in 10.0 mi SSW 15.0 mph - N/A   Clear
9:53 PM 68.0 °F 53.1 °F 59% 29.81 in 10.0 mi SSW 9.2 mph - N/A   Clear
10:53 PM 69.1 °F 53.1 °F 57% 29.79 in 10.0 mi SSW 13.8 mph - N/A   Clear
11:53 PM 64.9 °F 54.0 °F 68% 29.81 in 10.0 mi SSW 12.7 mph - N/A   Clear